Weather in Gastello

Russia / Magadan District     61°33′17″N   147°59′49″E
temp.,
°C
wind,
m/s
gust,
m/s
humid.,
%
clouds,
%
prec.,
mm/h
press.,
hPa
HPBL,
m
4 march, thu
thu423:00−32nnw22100100 0.1 100919
02:00−32nw2299100 0.1 100719
05:00−33nw22100100 0.2 100519
08:00−36nw22100100 0.1 100319
11:00−33nw2297100 0.1 1002118
14:00−30nw239098 0.0 1001314
17:00−31wnw229298 0.0 100119
20:00−36nw2210027 0.0 100319
5 march, fri
fri523:00−37wnw229650 0.0 100419
02:00−36nw229693 0.0 100419
05:00−36wnw229797 0.0 100619
08:00−36wnw2298100 0.0 100719
11:00−33nw2292100 0.0 1008134
14:00−30nw2385100 0.0 1007454
17:00−30nnw2290100 0.0 100879
20:00−34nw2297100 0.0 101019
6 march, sat
sat623:00−34wnw1197100 0.0 101019
02:00−33nw1199100 0.0 101019
05:00−33nnw2299100 0.1 101019
08:00−33nnw229899 0.1 101120
11:00−31nnw349299 0.1 1011313
14:00−29nw3486100 0.0 1010471
17:00−29nw2391100 0.0 1010158
20:00−33nw2295100 0.0 101219
7 march, sun
sun723:00−34nw22100100 0.0 101319
02:00−33nw2210096 0.0 101219
05:00−32nw229998 0.1 101319
08:00−32nw229999 0.1 101319
11:00−29wnw229399 0.1 1012206
14:00−27nw2386100 0.0 1011455
17:00−27nnw2288100 0.0 101129
20:00−30nnw229197 0.0 101219
8 march, mon
mon823:00−30nnw228998 0.0 101419
02:00−32nw228884 0.0 101419
05:00−34nw128651 0.0 101519
08:00−34wnw118444 0.0 101519
11:00−28wnw228368 0.0 1014114
14:00−26nw228189 0.0 1012273
17:00−26nw128551 0.0 101219
20:00−32n22930 0.0 101419